SCP
0 0 0 0 0 0 0 0 0 0 0 0 0 0 0 0 0 0 0 0 0 0 0 0 0 0 0 0 0 0 0 0 0 0 0 0 0 0 0 0 0 0 0
0 0 0 0 0 0 0 0 0 0 0 0 0 0 0 0 0 0 0 0 0 0 0 0 0 0 0 0 0 0 0 0 0 0 0 0 0 0 0 0 0 0 0
0 0 0 0 0 0 0 0 0 0 0 0 0 0 0 0 0 0 0 0 0 0 0 0 0 0 0 0 0 0 0 0 0 0 0 0 0 0 0 0 0 0 0
0 0 0 0 0 0 0 0 0 0 0 0 0 0 0 0 0 0 0 0 0 0 0 0 0 0 0 0 0 0 0 0 0 0 0 0 0 0 0 0 0 0 0
0 0 0 0 0 0 0 0 0 0 0 0 0 0 0 0 0 0 0 0 0 0 0 0 0 0 0 0 0 0 0 0 0 0 0 0 0 0 0 0 0 0 0
0 0 0 0 0 0 0 0 0 0 0 0 0 0 0 0 0 0 0 0 0 0 0 0 0 0 0 0 0 0 0 0 0 0 0 0 0 0 0 0 0 0 0
0 0 0 0 0 0 0 0 0 0 0 0 0 0 0 0 0 0 0 0 0 0 0 0 0 0 0 0 0 0 0 0 0 0 0 0 0 0 0 0 0 0 0
0 0 0 0 0 0 0 0 0 0 0 0 0 0 0 0 0 0 0 0 0 0 0 0 0 0 0 0 0 0 0 0 0 0 0 0 0 0 0 0 0 0 0
0 0 0 0 0 0 0 0 0 0 0 0 0 0 0 0 0 0 0 0 0 0 0 0 0 0 0 0 0 0 0 0 0 0 0 0 0 0 0 0 0 0 0
0 0 0 0 0 0 0 0 0 0 0 0 0 0 0 0 0 0 0 0 0 0 0 0 0 0 0 0 0 0 0 0 0 0 0 0 0 0 0 0 0 0 0
0 0 0 0 0 0 0 0 0 0 0 0 0 0 0 0 0 0 0 0 0 0 0 0 0 0 0 0 0 0 0 0 0 0 0 0 0 0 0 0 0 0 0
0 0 0 0 0 0 0 0 0 0 0 0 0 0 0 0 0 0 0 0 0 0 0 0 0 0 0 0 0 0 0 0 0 0 0 0 0 0 0 0 0 0 0
0 0 0 0 0 0 0 0 0 0 0 0 0 0 0 0 0 0 0 0 0 0 0 0 0 0 0 0 0 0 0 0 0 0 0 0 0 0 0 0 0 0 0
0 0 0 0 0 0 0 0 0 0 0 0 0 0 0 0 0 0 0 0 0 0 0 0 0 0 0 0 0 0 0 0 0 0 0 0 0 0 0 0 0 0 0
0 0 0 0 0 0 0 0 0 0 0 0 0 0 0 0 0 0 0 0 0 0 0 0 0 0 0 0 0 0 0 0 0 0 0 0 0 0 0 0 0 0 0
0 0 0 0 0 0 0 0 0 0 0 0 0 0 0 0 0 0 0 0 0 0 0 0 0 0 0 0 0 0 0 0 0 0 0 0 0 0 0 0 0 0 0
0 0 0 0 0 0 0 0 0 0 0 0 0 0 0 0 0 0 0 0 0 0 0 0 0 0 0 0 0 0 0 0 0 0 0 0 0 0 0 0 0 0 0
0 0 0 0 0 0 0 0 0 0 0 0 0 0 0 0 0 0 0 0 0 0 0 0 0 0 0 0 0 0 0 0 0 0 0 0 0 0 0 0 0 0 0
0 0 0 0 0 0 0 0 0 0 0 0 0 0 0 0 0 0 0 0 0 0 0 0 0 0 0 0 0 0 0 0 0 0 0 0 0 0 0 0 0 0 0
0 0 0 0 0 0 0 0 0 0 0 0 0 0 0 0 0 0 0 0 0 0 0 0 0 0 0 0 0 0 0 0 0 0 0 0 0 0 0 0 0 0 0
0 0 0 0 0 0 0 0 0 0 0 0 0 0 0 0 0 0 0 0 0 0 0 0 0 0 0 0 0 0 0 -0 -0 0 0 0 0 0 0 0 0 0 0
0 0 0 0 0 0 0 0 0 0 0 0 0 0 0 0 0 0 0 0 0 0 0 0 0 0 0 0 0 0 0 -0 -0 -0 -0 0 0 0 0 0 0 0 0
0 0 0 0 0 0 0 0 0 0 0 0 0 0 0 0 0 0 0 0 0 0 0 0 0 0 0 0 0 0 0 0 -0 -0 -0 0 0 0 0 0 0 0 0
0 0 0 0 0 0 0 0 0 0 0 0 0 0 0 0 0 0 0 0 0 0 0 0 0 0 0 0 0 0 0 0 0 0 0 0 0 0 0 0 0 0 0
0 0 0 0 0 0 0 0 0 0 0 0 0 0 0 0 0 0 0 0 0 0 0 0 0 0 0 0 0 0 0 0 0 0 0 0 0 0 0 0 0 0 0
0 0 0 0 0 0 0 0 0 0 0 0 0 0 0 0 0 0 0 0 0 0 0 0 0 0 0 0 0 0 0 0 0 0 0 0 0 -0 0 0 0 0 0
Wind_Speed
2 3 8 9 10 11 11 12 11 11 12 12 11 12 12 13 13 13 13 13 12 12 11 11 10 10 9 9 9 10 10 10 10 10 10 10 10 10 10 10 10 7 10
4 5 9 10 11 11 11 12 12 12 12 11 11 11 12 12 12 12 12 12 12 12 11 10 10 10 9 9 9 9 9 9 10 10 10 9 10 10 10 10 10 7 11
6 5 8 10 11 11 11 11 12 11 11 11 10 10 11 12 12 12 12 12 11 11 11 10 10 10 9 8 8 9 9 9 9 9 8 5 6 9 10 9 10 10 10
6 5 7 10 11 11 11 11 11 10 10 10 10 9 10 12 12 11 11 11 11 11 11 10 10 9 9 8 8 8 8 8 8 8 4 4 5 8 9 9 9 10 10
5 5 7 11 11 11 10 10 10 10 10 10 9 9 10 11 11 10 10 10 10 10 10 9 9 8 8 8 7 8 8 7 7 5 3 3 4 8 9 9 9 10 10
5 5 7 11 11 11 10 10 10 10 9 9 9 9 9 10 9 9 9 9 8 8 8 8 7 7 7 7 7 7 7 7 5 3 3 4 4 7 8 8 9 9 10
6 5 6 11 11 11 10 10 9 9 9 8 8 8 8 8 8 8 7 7 7 7 6 7 6 6 6 6 6 6 6 7 4 3 3 3 4 8 8 8 9 9 9
6 5 5 9 10 10 9 9 9 9 8 8 8 8 8 8 7 7 6 6 5 5 5 5 5 5 5 5 5 5 5 5 4 3 3 3 6 8 9 9 8 8 9
5 5 3 4 6 8 8 8 8 8 8 8 7 7 7 7 6 5 5 4 4 4 4 4 4 4 4 4 5 5 5 5 3 2 3 3 6 9 9 9 8 8 8
5 4 4 3 3 3 4 6 7 7 7 7 7 6 6 6 5 4 4 3 3 3 3 3 3 3 4 4 5 5 5 4 3 2 2 3 7 9 9 8 8 8 8
4 3 3 3 3 2 2 4 5 6 6 6 4 5 4 2 2 2 3 2 2 2 2 2 3 3 2 2 3 4 3 2 2 2 2 4 6 8 8 8 8 8 8
5 4 3 3 3 3 2 2 2 2 3 3 2 2 2 2 1 1 1 1 1 1 1 1 1 1 1 1 1 2 1 2 2 2 2 5 7 7 7 8 8 8 8
5 4 3 3 3 3 2 2 2 2 2 2 2 2 2 2 1 1 1 1 1 2 1 1 1 0 1 1 1 1 1 1 1 2 2 5 7 8 7 7 8 8 8
5 4 4 4 3 3 2 2 2 2 2 1 1 1 2 1 1 1 1 1 1 1 1 1 1 1 1 2 2 1 1 1 1 1 2 5 6 7 7 7 7 8 8
6 5 4 4 4 4 3 2 2 2 2 2 1 1 1 1 1 1 1 1 1 1 1 1 1 2 2 2 1 2 1 1 1 1 1 4 6 6 7 7 7 8 8
6 6 5 5 4 4 3 2 2 2 2 1 1 1 1 1 1 1 1 1 1 0 0 1 1 2 1 1 1 1 1 1 1 1 1 2 5 6 7 6 6 6 7
6 5 5 5 5 4 4 3 2 2 2 1 1 1 1 2 2 1 1 0 0 0 1 1 2 2 1 1 1 0 0 0 1 1 1 1 2 4 5 5 6 6 6
5 5 5 5 5 5 4 3 2 2 1 1 0 0 1 2 2 2 1 0 0 1 1 1 1 1 1 1 0 1 1 0 0 0 0 0 1 1 2 3 4 4 5
6 6 5 5 5 5 4 3 3 2 1 1 0 0 1 1 2 2 1 1 1 1 1 1 1 1 1 1 0 0 1 0 0 0 0 0 1 1 0 1 2 3 4
5 5 6 6 5 5 3 3 2 1 1 0 1 1 1 1 1 2 1 1 1 1 1 1 1 1 1 0 0 1 1 1 1 0 0 0 1 1 1 0 1 2 3
6 6 6 6 5 5 3 2 2 1 1 0 1 1 1 1 2 2 1 1 1 1 1 2 2 1 1 1 1 1 2 1 1 1 0 0 1 1 1 1 1 1 1
7 6 6 6 6 5 3 2 2 2 1 1 0 0 1 1 2 2 2 1 1 1 1 1 2 1 1 1 1 1 1 2 2 2 1 1 0 0 0 1 1 1 1
7 7 7 6 6 5 5 3 3 2 2 1 0 0 0 1 2 2 2 2 2 2 2 2 2 2 1 1 1 2 1 1 1 1 1 1 1 0 0 0 1 1 2
7 6 5 6 5 5 5 4 5 3 2 2 1 1 0 1 1 2 2 2 2 2 2 2 2 2 2 1 0 1 1 2 1 1 1 1 0 0 1 1 1 1 2
6 6 5 5 4 4 4 5 4 3 2 1 1 1 0 0 1 1 2 2 2 2 2 1 2 2 2 2 1 1 1 0 1 1 1 1 1 1 1 1 1 1 1
5 5 5 5 4 4 4 4 4 4 4 3 2 1 0 0 0 1 2 2 2 2 2 2 2 2 2 2 1 1 1 1 2 2 2 1 1 1 1 1 1 1 1
Wind_Direction
181 169 151 138 135 133 133 132 132 130 130 131 134 135 137 140 141 143 143 142 141 140 138 140 143 143 145 144 145 145 147 148 150 148 152 154 152 151 150 148 143 139 140
151 154 144 135 135 133 133 133 131 129 131 132 134 138 142 144 144 142 143 143 144 143 141 141 144 147 149 147 146 145 147 149 148 149 155 156 154 153 150 150 145 144 144
136 142 140 137 136 136 135 133 131 132 131 131 133 140 147 148 145 144 144 145 146 146 144 142 143 147 150 149 146 146 147 147 144 146 145 140 147 153 152 151 148 147 150
137 135 139 139 137 134 134 133 132 132 131 131 133 135 141 146 144 145 145 147 147 146 146 146 144 146 148 150 149 149 150 148 148 148 143 146 153 155 156 156 155 154 153
134 134 142 140 138 135 135 134 134 132 129 131 132 132 134 140 144 146 148 148 147 147 148 148 147 146 150 152 154 154 153 152 149 141 132 140 147 157 162 164 163 160 158
141 139 144 143 141 138 136 134 133 132 131 132 131 133 136 141 144 145 146 147 147 148 150 150 151 153 158 157 156 159 158 155 145 139 139 142 152 167 168 172 171 168 163
146 141 144 146 143 140 139 137 136 133 133 132 130 131 137 138 137 136 138 142 142 145 150 157 162 164 170 167 163 163 158 156 147 145 155 161 173 175 175 174 174 172 167
142 138 140 148 145 142 142 141 140 137 137 135 134 131 129 128 128 131 131 131 140 147 153 158 165 172 176 172 171 167 159 158 149 155 161 174 182 180 177 173 172 173 173
121 122 124 137 142 144 146 146 144 140 137 133 132 132 131 132 133 133 132 137 145 153 156 160 168 174 172 169 173 168 159 154 140 157 173 178 186 185 181 174 174 174 173
111 118 125 124 127 134 142 146 142 139 136 131 130 131 132 131 129 130 130 140 155 166 169 172 178 179 179 173 169 159 154 148 148 161 176 190 188 188 188 183 182 182 183
130 129 132 132 128 127 133 141 133 132 127 128 125 126 114 83 84 106 135 148 162 166 169 171 179 180 176 169 168 162 151 139 150 172 186 194 190 192 194 193 192 191 190
156 158 148 146 142 135 147 121 101 103 102 102 96 95 84 80 81 98 118 141 124 113 126 127 182 183 151 113 143 134 126 148 163 192 197 194 193 195 199 199 199 198 196
166 163 153 147 142 135 125 110 95 89 85 82 84 88 95 83 67 48 42 28 19 24 26 24 354 25 111 116 112 120 149 170 195 210 208 197 194 196 199 198 197 198 198
161 165 154 144 135 132 126 118 112 106 104 103 101 94 101 91 63 42 39 24 22 21 25 16 38 79 104 110 125 135 154 183 207 218 214 199 195 198 202 202 202 200 200
166 167 158 148 146 143 134 138 127 124 127 123 105 100 118 124 106 63 38 35 21 25 34 34 56 87 98 99 119 131 150 174 202 219 230 209 201 203 209 209 206 206 206
176 168 155 153 154 143 138 133 124 125 123 116 129 163 158 155 150 139 86 35 2 16 36 63 73 80 84 91 83 108 156 168 188 210 232 226 214 213 217 211 209 207 207
170 160 159 160 152 147 147 144 133 127 128 139 168 173 163 158 161 156 142 167 287 41 61 65 66 79 89 81 69 58 109 143 174 219 234 233 225 223 222 215 212 208 208
160 161 169 162 150 151 147 141 139 135 139 155 179 196 172 166 167 156 152 185 222 75 83 93 78 78 71 75 55 12 36 37 6 244 215 213 220 231 223 206 207 213 214
167 164 160 150 151 150 141 131 127 121 118 132 136 219 187 172 173 158 164 172 137 105 95 126 94 113 105 88 94 33 25 42 20 4 50 176 158 157 201 211 215 217 215
156 155 153 148 147 139 126 117 109 99 99 133 168 199 166 153 158 153 153 157 140 122 107 108 118 108 121 131 89 41 26 26 42 22 229 137 140 166 169 207 244 237 221
148 150 153 152 152 140 140 151 150 171 190 195 196 188 174 168 159 139 141 132 141 147 158 146 136 117 65 71 78 39 16 27 27 357 29 91 161 178 143 177 212 217 229
167 167 163 162 160 157 163 159 151 144 150 176 215 169 181 176 173 166 156 159 145 129 117 131 141 130 87 80 108 91 12 1 4 11 32 60 54 116 164 201 184 180 193
180 182 178 174 167 164 158 131 111 83 60 57 32 293 256 182 171 162 155 148 142 145 160 169 149 142 141 86 88 128 138 237 316 351 14 24 44 53 305 234 205 202 203
187 179 176 173 170 164 154 153 158 158 169 195 192 204 273 124 143 153 156 151 154 149 158 171 146 144 146 166 145 108 154 163 173 313 344 356 8 330 284 267 246 223 214
179 174 171 163 167 161 158 170 170 166 170 160 135 125 87 68 141 162 162 162 164 164 170 162 151 152 157 165 166 149 135 120 159 168 263 310 347 333 312 291 263 243 225
166 163 162 162 168 161 168 176 177 173 167 155 167 169 186 247 245 179 165 175 179 176 181 183 176 165 166 162 159 146 161 174 186 178 208 251 280 302 313 303 266 254 243